sat.trackr.live / text

‹ back to catalog

JCSAT-3A

NORAD 29272 · 2006-033A

PAYLOAD ACTIVE UNKNOWN

§ Identity

Operator
Country
JPN
Launch date
2006-08-11
Launch site
FRGUI
Launch vehicle
Mass (kg)
RCS (m²)
31.62

Purposes: comms

External: N2YO · Heavens-Above · Gunter

§ Orbital elements

Epoch: 2026-09-19T22:42:40.794336Z

Period
1,436.10 min
Inclination
0.0286°
Eccentricity
0.0002403
Mean motion
1.00271647 rev/d
Perigee alt
35,776.5 km
Apogee alt
35,796.8 km
Semi-major
42,164.8 km
B*
0.0000e+0
RAAN
269.9253°
Arg perigee
270.3806°
Mean anomaly
287.2245°
Rev number
4,869

§ Raw data

JCSAT-3A1 29272U 06033A   26262.94630549 -.00000349  00000+0  00000+0 0  99972 29272   0.0286 269.9253 0002403 270.3806 287.2245  1.00271647 48696

JSON: /api/v1/satellites/29272 · /tle

For live sub-satellite position, see the globe view (requires WebGL).

§ Visibility from observer

Set your observer location to see the next 7 days of passes ≥ 10°. The values pass through the URL so the page stays shareable.

No JS? Fill the form by hand. The geolocation button needs JavaScript.